Meteor 2-16 Rocket - Orbit

View from above orbital plane
View from above orbital plane
View from above satellite
View from above satellite

Ground track
Ground track

The orbit data is extracted from the following two-line orbital elements,

1 18313U 87068B   13140.51668796  .00000008  00000-0 -66240-5 0  6508
2 18313 082.5559 129.9584 0010811 155.7618 204.4053 13.84111876301387
Epoch (UTC): 20 May 2013 12:24:01
Eccentricity: 0.0010811
inclination: 82.5559°
perigee height: 941 km
apogee height: 957 km
right ascension of ascending node: 129.9584°
argument of perigee: 155.7618°
revolutions per day: 13.84111876
mean anomaly at epoch: 204.4053°
orbit number at epoch: 30138

The dashed part of the orbit path shows where the satellite is in the earth's shadow,  

Developed and maintained by Chris Peat, Heavens-Above GmbH. Please read the updated FAQ before sending e-mail. Imprint. DLR